Regional Weather Roundup
Issued by NWS Nashville, TN

Home | Current Version | Previous Version | Text Only | Print | Product List | Glossary On
Versions: 1 2 3 4 5 6 7 8 9 10 11 12 13 14 15 16 17 18 19 20 21 22 23 24 25 26 27 28 29 30 31 32 33 34 35 36 37 38 39 40 41 42 43 44 45 46 47 48 49 50
000
ASUS44 KOHX 240310
RWROHX
MIDDLE TENNESSEE HOURLY WEATHER ROUNDUP
NATIONAL WEATHER SERVICE NASHVILLE TN
900 PM CST TUE JAN 23 2018

NOTE: "FAIR" INDICATES FEW OR NO CLOUDS BELOW 12,000 FEET WITH
NO SIGNIFICANT WEATHER AND/OR OBSTRUCTIONS TO VISIBILITY.

* THESE REPORTS ARE NOT UNDER NWS QUALITY CONTROL AND MAY NOT
  REPORT WEATHER SUCH AS PRECIPITATION AND FOG.


TNZ005>011-023>034-057-059-062>066-078-080-240400
...NORTHERN MIDDLE TENNESSEE...

CITY           SKY/WX    TMP DP  RH WIND       PRES   REMARKS
CLARKSVILLE    CLOUDY    37  27  67 N12       30.24R WCI  29
CROSSVILLE     CLOUDY    35  26  69 W12       30.15R WCI  27
GALLATIN       CLOUDY    39  30  70 NW7       30.25R WCI  34
DICKSON          N/A     36  28  73 NW9       30.22R WCI  29
NASHVILLE      CLOUDY    41  29  62 W7        30.23R
PORTLAND       CLOUDY    37  30  75 NW8       30.20R WCI  31
SMYRNA         CLOUDY    40  29  64 W9        30.24R WCI  34
SPARTA         CLOUDY    39  28  65 NW6       30.19R WCI  35
SPRINGFIELD    CLOUDY    37  28  70 NW12G20   30.21R WCI  30
WEST NASHVILLE CLOUDY    39  30  70 W6G12     30.22R WCI  35
$$
TNZ056-058-060-061-075>077-079-093>097-240400
...SOUTHERN MIDDLE TENNESSEE...

CITY           SKY/WX    TMP DP  RH WIND       PRES   REMARKS
COLUMBIA       CLOUDY    39  30  70 W7        30.22S WCI  34
FAYETTEVILLE   CLOUDY    39  28  65 NW9       30.22R WCI  33
MCMINNVILLE    CLOUDY    37  30  75 W5        30.21R WCI  34
SHELBYVILLE    CLOUDY    39  30  70 W6        30.23R WCI  35
TULLAHOMA      CLOUDY    37  28  70 NW9       30.21R WCI  31
WINCHESTER     CLOUDY    37  28  70 NW9       30.22R WCI  31
$$


...KEY TO REMARKS...
VSB - VISIBILITY IN MILES
WCI - WIND CHILL INDEX
HX  - HEAT INDEX




USA.gov is the U.S. government's official web portal to all federal, state and local government web resources and services.